This is the latest recevied weather packets stored in our database for station/object K1WJY. If no packets are shown the sender has not sent any weather packets the latest 10 day(s).
| Time | Temp. | Humidity | Pressure | Rain* | Wind** | Luminosity | Snow |
|---|---|---|---|---|---|---|---|
| 1777636377 | 7.78° C | 99% | 1007.9 hPa | 0 mm | - | 135 W/m² | - |
| 1777636075 | 7.78° C | 99% | 1008.1 hPa | 0 mm | - | 109 W/m² | - |
| 1777635773 | 7.78° C | 99% | 1007.9 hPa | 0 mm | - | 95 W/m² | - |
| 1777635469 | 7.78° C | 99% | 1007.8 hPa | 0 mm | - | 92 W/m² | - |
| 1777635166 | 7.78° C | 99% | 1007.7 hPa | 0 mm | - | 72 W/m² | - |
| 1777634862 | 7.78° C | 99% | 1007.9 hPa | 0 mm | - | 63 W/m² | - |
| 1777634560 | 7.78° C | 99% | 1007.7 hPa | 0 mm | - | 61 W/m² | - |
| 1777634257 | 7.78° C | 99% | 1007.9 hPa | 0 mm | - | 62 W/m² | - |
| 1777633953 | 7.78° C | 99% | 1007.7 hPa | 0 mm | - | 56 W/m² | - |
| 1777633650 | 8.33° C | 99% | 1007.6 hPa | 0 mm | - | 65 W/m² | - |
| 1777633349 | 8.33° C | 99% | 1007.8 hPa | 0 mm | - | 56 W/m² | - |
| 1777633046 | 7.78° C | 99% | 1007.7 hPa | 0 mm | - | 53 W/m² | - |
| 1777632742 | 8.33° C | 99% | 1007.6 hPa | 0 mm | - | 41 W/m² | - |
| 1777632438 | 8.33° C | 99% | 1007.5 hPa | 0 mm | - | 39 W/m² | - |
| 1777632135 | 8.33° C | 99% | 1007.8 hPa | 0 mm | - | 33 W/m² | - |
| 1777631833 | 8.33° C | 99% | 1007.4 hPa | 0 mm | - | 32 W/m² | - |
| 1777631531 | 8.33° C | 99% | 1007.6 hPa | 0 mm | - | 40 W/m² | - |
| 1777631228 | 8.33° C | 99% | 1007.5 hPa | 0 mm | - | 35 W/m² | - |
| 1777630925 | 8.33° C | 99% | 1007.2 hPa | 0 mm | - | 26 W/m² | - |
| 1777630620 | 8.33° C | 99% | 1007.3 hPa | 0 mm | - | 20 W/m² | - |
| 1777630317 | 7.78° C | 99% | 1007 hPa | 0 mm | - | 17 W/m² | - |
| 1777630015 | 7.78° C | 99% | 1007.1 hPa | 0 mm | - | 12 W/m² | - |
| 1777629712 | 7.78° C | 99% | 1007.1 hPa | 0 mm | - | 9 W/m² | - |
| 1777629409 | 7.78° C | 99% | 1006.9 hPa | 0 mm | - | 7 W/m² | - |
| 1777629104 | 7.78° C | 99% | 1006.9 hPa | 0 mm | - | 6 W/m² | - |
* Rain latest hour (hover to see other rain measurements)
** Current wind speed in m/s (hover to see current wind gust speed)